STARLINK-11180 [DTC] (60185 NORAD) Tracking and Keplerian Element Data

This shows tracking and keplerian element data for the satellite.

Feedback or suggestion? Click here.




ElementValue
Catalog60185
NameSTARLINK-11180 [DTC]
Epoch Orbit1704
Epoch Day285.98583354
Epoch Year2024
RAAN173.4439
Inclination53.1577
Eccentricity4.71E-05
Argument of Perigee54.9317
Mean Anonmoly305.1745
Mean Motion15.69640658
Decay Rate-0.00022983
L11 60185U 24124C 24285.98583354 -.00022983 00000+0 -18592-3 0 9992
L22 60185 53.1577 173.4439 0000471 54.9317 305.1745 15.69640658 17049



Live tracking and technical data element details for STARLINK-11180 [DTC] (NORAD 60185). STARLINK-11180 [DTC] can be tracked NOW for your location showing map with azimuth and elevation plus other details from your city location.







IsCatalogInMostPopularTable: catalog: 60185, numindb: 13
Update: records affected: 1



GetName: 60185 STARLINK-11180 [DTC]

Hit Count: updated at: Thu, 23 Jan 2025 13:20:25 GMT